Location: Lincoln Park
(32.7042°N, 117.0895°W)
Time: 12:47:31
(UTC+00:00)

X-37B - Pass Details

Date: 26 June 2022
Orbit: 328 x 343 km, 45.0° (Epoch: 12 August)

Event Time Altitude Azimuth Distance (km) Brightness Sun altitude
Rises 11:59:46 0° 298° (WNW) 2,117 4.0 -8.5°
Reaches altitude 10° 12:01:49 10° 291° (WNW) 1,279 2.9 -8.1°
Maximum altitude 12:04:33 42° 219° (SW) 499 0.7 -7.6°
Drops below altitude 10° 12:07:17 10° 146° (SE) 1,277 3.2 -7.2°
Sets 12:09:20 0° 139° (SE) 2,113 4.4 -6.8°
